TimeEST,TemperatureF,Dew PointF,Humidity,Sea Level PressureIn,VisibilityMPH,Wind Direction,Wind SpeedMPH,Gust SpeedMPH,PrecipitationIn,Events,Conditions,WindDirDegrees,DateUTC
12:54 AM,35.1,23.0,61,29.85,10.0,NW,13.8,-,N/A,,Overcast,320,2013-03-02 05:54:00
1:54 AM,34.0,21.9,61,29.85,10.0,NNW,10.4,-,N/A,,Overcast,340,2013-03-02 06:54:00
2:54 AM,33.1,21.9,64,29.85,10.0,NNW,11.5,-,N/A,,Overcast,330,2013-03-02 07:54:00
3:54 AM,33.1,21.0,61,29.85,10.0,NW,5.8,-,N/A,,Overcast,320,2013-03-02 08:54:00
4:54 AM,32.0,21.0,64,29.85,10.0,WNW,9.2,-,N/A,,Overcast,300,2013-03-02 09:54:00
6:54 AM,32.0,19.9,61,29.86,10.0,NW,9.2,-,N/A,,Overcast,320,2013-03-02 11:54:00
7:54 AM,33.1,21.0,61,29.86,10.0,NW,13.8,-,N/A,,Overcast,320,2013-03-02 12:54:00
8:54 AM,33.1,21.0,61,29.86,10.0,NNW,12.7,-,N/A,,Overcast,330,2013-03-02 13:54:00
9:54 AM,34.0,21.0,59,29.84,10.0,NW,13.8,-,N/A,,Mostly Cloudy,320,2013-03-02 14:54:00
10:54 AM,36.0,21.0,55,29.83,10.0,NNW,10.4,-,N/A,,Overcast,330,2013-03-02 15:54:00
11:54 AM,37.9,21.0,51,29.82,10.0,North,6.9,-,N/A,,Overcast,10,2013-03-02 16:54:00
12:54 PM,37.9,21.0,51,29.79,10.0,NW,8.1,-,N/A,,Overcast,310,2013-03-02 17:54:00
1:54 PM,37.9,21.0,51,29.78,10.0,NNW,13.8,17.3,N/A,,Overcast,330,2013-03-02 18:54:00
2:54 PM,37.0,19.9,50,29.78,10.0,NNW,15.0,-,N/A,,Overcast,330,2013-03-02 19:54:00
3:54 PM,37.0,21.0,52,29.78,10.0,NW,12.7,-,N/A,,Overcast,320,2013-03-02 20:54:00
4:54 PM,37.0,21.0,52,29.78,10.0,NNW,13.8,-,N/A,,Overcast,330,2013-03-02 21:54:00
5:54 PM,36.0,19.9,52,29.80,10.0,North,10.4,-,N/A,,Overcast,350,2013-03-02 22:54:00
6:54 PM,35.1,19.9,54,29.81,10.0,NW,5.8,-,N/A,,Overcast,320,2013-03-02 23:54:00
7:54 PM,34.0,19.9,56,29.81,10.0,NW,9.2,-,N/A,,Overcast,320,2013-03-03 00:54:00
8:54 PM,34.0,21.0,59,29.82,10.0,NW,5.8,-,N/A,,Scattered Clouds,310,2013-03-03 01:54:00
9:54 PM,33.1,21.0,61,29.83,10.0,NNW,11.5,-,N/A,,Overcast,340,2013-03-03 02:54:00
10:54 PM,32.0,21.0,64,29.82,10.0,NW,11.5,-,N/A,,Mostly Cloudy,320,2013-03-03 03:54:00
11:54 PM,30.9,21.0,67,29.82,10.0,NW,8.1,-,N/A,,Overcast,320,2013-03-03 04:54:00